Wind_Speed
21 21 22 22 20 20 19 18 17 15 15 21 24 23 27 31 33 35 33 34 35 35 32 29 29 25 24 23 22 20 19 17
19 20 21 22 23 21 21 22 21 17 15 15 19 23 25 27 32 35 37 35 38 37 37 34 31 29 29 26 24 23 21 19
23 23 22 23 24 24 23 22 23 20 17 15 16 20 24 24 29 33 35 38 33 37 41 37 35 31 31 32 31 25 24 21
22 23 24 23 24 25 25 24 22 21 20 17 15 15 19 25 23 27 33 35 36 32 35 43 35 38 31 35 35 35 28 24
20 22 23 23 23 23 24 24 23 21 22 20 19 16 16 15 22 21 24 36 34 38 30 32 44 37 36 33 34 35 32 30
20 20 20 21 22 22 23 24 22 22 21 20 19 18 18 17 18 26 29 23 28 32 33 30 37 40 36 38 30 38 34 32
18 18 17 18 20 21 21 24 24 23 22 21 20 20 19 20 19 19 20 24 26 35 44 28 27 29 32 35 38 37 41 38
20 19 17 17 19 20 21 22 24 24 23 23 21 21 19 19 20 20 20 21 20 14 21 39 31 23 22 23 30 34 36 38
20 16 15 16 16 18 19 21 23 23 23 24 22 22 19 18 20 21 21 20 20 19 25 15 30 37 36 34 31 31 37 39
16 14 14 14 15 17 17 20 21 22 23 23 23 22 22 21 20 19 21 23 22 19 20 20 22 44 37 42 42 39 35 35
15 15 13 13 14 16 17 18 20 22 22 24 24 25 24 23 21 20 20 20 22 21 19 19 20 31 34 33 39 44 35 34
16 14 12 13 13 14 16 19 20 22 22 23 26 26 25 24 23 22 21 21 20 21 21 20 21 24 20 27 25 39 33 35
15 11 11 14 12 14 16 19 21 21 22 22 24 25 26 25 25 24 24 23 20 19 20 20 19 23 23 26 27 24 34 36
13 10 12 14 13 13 15 17 20 21 21 22 23 24 24 24 25 24 25 24 23 20 18 18 19 19 23 28 29 29 31 27
13 12 12 14 13 13 14 17 20 22 21 22 22 24 23 23 24 24 24 24 22 22 19 17 16 18 21 24 30 31 34 35
13 13 13 14 15 13 14 16 19 21 20 20 20 21 21 21 23 23 23 22 22 21 22 16 18 14 21 24 27 29 32 31
15 15 15 16 16 14 14 16 18 18 18 19 19 19 20 20 21 21 23 24 22 20 20 21 15 15 22 23 25 26 26 30
15 16 16 16 14 13 14 17 18 18 17 18 19 20 21 21 21 20 21 23 23 22 20 19 21 18 20 23 24 24 24 23
15 15 16 14 12 13 15 17 18 17 17 18 19 20 20 21 21 20 21 22 24 24 22 21 21 20 24 23 24 24 24 23
Wind_Direction
9 7 7 5 357 351 343 343 338 330 301 270 253 261 267 257 246 249 248 244 242 241 235 233 232 228 230 230 228 233 230 235
8 8 7 7 3 357 350 347 341 342 330 299 264 259 252 268 252 255 259 255 249 243 241 238 233 229 228 230 229 229 235 232
11 7 7 8 4 2 356 351 347 345 340 331 307 272 268 260 269 267 263 261 253 250 244 238 236 232 229 229 232 229 234 233
8 8 6 6 6 3 1 357 350 344 337 335 326 300 275 268 275 271 272 271 260 250 249 244 235 237 231 234 234 236 231 232
7 2 3 5 4 3 1 359 357 351 339 340 336 337 321 284 258 268 273 264 266 259 257 255 245 235 237 236 237 237 235 233
2 359 355 354 355 358 359 359 355 357 354 343 342 333 325 305 296 266 265 271 252 265 258 260 247 239 239 244 238 246 240 237
349 348 348 348 347 351 355 357 356 356 358 355 346 338 330 320 310 303 287 271 270 276 242 239 242 248 251 252 254 249 251 245
334 336 340 343 346 347 348 351 354 354 355 355 354 346 341 332 323 316 309 293 273 259 250 243 257 254 253 261 258 252 247 249
323 324 330 338 346 347 347 347 348 352 353 354 353 352 346 341 331 321 318 313 295 274 264 226 254 261 259 265 270 265 258 252
324 323 324 335 344 350 349 348 347 349 351 351 351 349 350 346 340 334 322 316 311 298 268 264 249 244 265 258 269 272 267 257
335 327 325 333 340 345 349 350 349 346 347 350 347 348 345 346 345 341 335 327 316 307 300 279 255 253 248 250 261 258 264 262
332 326 323 329 333 342 347 348 348 346 346 346 349 348 345 343 344 342 339 335 330 318 308 300 285 246 254 254 256 257 261 267
337 333 333 336 331 339 345 348 348 343 342 343 344 345 345 342 338 338 341 339 335 331 323 316 305 285 269 248 249 257 249 253
335 326 326 333 327 330 339 344 345 343 341 340 341 341 342 343 341 337 332 338 338 333 331 328 324 310 282 271 260 253 246 243
321 315 314 322 320 319 327 335 341 341 339 339 338 339 340 339 340 340 339 333 335 335 333 335 328 325 303 290 277 267 258 253
321 315 313 314 316 310 318 328 335 334 334 335 335 334 336 335 338 340 340 338 332 332 331 332 338 326 310 303 296 293 282 274
318 314 310 310 311 306 314 322 328 331 330 330 330 331 333 333 334 335 337 339 336 329 328 330 329 331 321 319 317 304 303 286
308 315 314 310 306 302 311 319 323 325 327 327 328 329 331 333 332 331 333 338 337 334 329 323 324 324 311 314 319 318 310 305
298 309 313 309 301 302 305 314 318 320 322 324 325 326 326 329 331 329 331 331 335 335 334 330 324 317 314 316 315 316 314 309
Height
1597 1594 1590 1587 1584 1580 1576 1572 1570 1567 1566 1566 1567 1567 1567 1568 1571 1572 1575 1577 1579 1580 1583 1585 1587 1590 1592 1593 1595 1596 1598 1601
1601 1596 1593 1590 1585 1580 1577 1573 1568 1565 1563 1561 1562 1562 1562 1563 1564 1567 1567 1570 1573 1574 1576 1579 1580 1583 1585 1588 1590 1592 1594 1596
1601 1597 1593 1589 1586 1582 1577 1574 1570 1567 1563 1561 1559 1558 1559 1559 1560 1559 1560 1562 1565 1566 1568 1571 1573 1576 1578 1580 1582 1586 1589 1591
1602 1599 1596 1592 1586 1583 1580 1576 1571 1567 1562 1561 1558 1555 1553 1555 1555 1555 1553 1555 1556 1558 1559 1562 1567 1568 1571 1572 1575 1577 1583 1586
1604 1601 1598 1594 1589 1585 1582 1578 1573 1567 1562 1559 1556 1554 1550 1548 1548 1548 1547 1546 1547 1550 1553 1552 1558 1562 1564 1566 1569 1571 1575 1578
1604 1602 1599 1596 1592 1587 1584 1579 1575 1569 1563 1559 1556 1552 1549 1544 1543 1542 1542 1542 1536 1531 1544 1541 1550 1554 1557 1560 1563 1564 1567 1571
1605 1603 1600 1596 1593 1588 1584 1580 1576 1570 1564 1560 1556 1552 1547 1543 1539 1537 1535 1534 1534 1535 1531 1531 1540 1545 1548 1551 1554 1557 1559 1562
1603 1600 1598 1596 1592 1588 1583 1580 1576 1570 1565 1560 1555 1551 1547 1543 1538 1535 1531 1528 1528 1531 1522 1530 1529 1537 1540 1542 1545 1548 1551 1553
1601 1598 1596 1593 1590 1587 1582 1579 1575 1570 1564 1559 1555 1550 1546 1543 1539 1534 1530 1528 1526 1525 1525 1516 1526 1528 1531 1534 1536 1540 1542 1544
1598 1596 1594 1591 1588 1586 1582 1577 1574 1569 1564 1559 1554 1550 1545 1541 1537 1533 1529 1526 1524 1520 1519 1519 1519 1521 1522 1524 1525 1530 1533 1535
1597 1595 1593 1590 1587 1584 1581 1577 1573 1569 1563 1558 1553 1548 1543 1539 1536 1532 1529 1526 1522 1519 1517 1515 1513 1516 1516 1516 1516 1524 1525 1525
1596 1594 1592 1590 1586 1583 1580 1576 1572 1567 1562 1557 1552 1547 1543 1538 1534 1531 1527 1523 1520 1516 1514 1512 1508 1507 1507 1508 1507 1513 1513 1513
1594 1592 1590 1588 1585 1582 1579 1574 1570 1566 1561 1556 1551 1546 1541 1537 1534 1529 1525 1521 1518 1515 1511 1508 1505 1502 1500 1502 1504 1502 1501 1506
1593 1591 1589 1587 1584 1581 1578 1575 1571 1566 1561 1556 1551 1546 1541 1537 1532 1528 1523 1519 1515 1512 1509 1505 1503 1500 1496 1495 1495 1495 1497 1495
1591 1589 1587 1585 1582 1580 1577 1573 1569 1564 1559 1554 1550 1545 1540 1536 1531 1527 1522 1517 1514 1510 1506 1504 1500 1498 1493 1490 1489 1488 1488 1487
1588 1586 1584 1582 1580 1577 1575 1571 1567 1563 1558 1554 1550 1545 1540 1536 1530 1525 1521 1517 1512 1508 1503 1501 1498 1495 1490 1486 1484 1483 1481 1479
1585 1583 1581 1579 1576 1574 1571 1568 1565 1560 1557 1552 1548 1544 1540 1535 1529 1525 1520 1515 1510 1506 1502 1497 1494 1492 1486 1482 1479 1477 1475 1473
1582 1580 1577 1575 1572 1570 1568 1565 1562 1557 1553 1550 1546 1541 1536 1532 1528 1523 1518 1512 1508 1504 1499 1495 1491 1487 1481 1477 1474 1472 1470 1466
1578 1576 1573 1571 1569 1567 1564 1562 1558 1554 1551 1546 1542 1538 1534 1530 1525 1521 1515 1510 1505 1500 1495 1492 1487 1483 1477 1474 1470 1467 1464 1461